Location: Basse Occidentale du Courleau
(48.3833°N, 4.8333°W)
Time: 09:49:49
(UTC+00:00)

Terra - Pass Details

Date: 05 July 2020
Orbit: 701 x 703 km, 98.2° (Epoch: 08 August)

Event Time Altitude Azimuth Distance (km) Brightness Sun altitude
Exits shadow 22:10:29 18° 166° (SSE) 1,709 3.2 -12.9°
Maximum altitude 22:14:06 87° 253° (WSW) 712 1.8 -13.2°
Drops below altitude 10° 22:18:54 10° 346° (NNW) 2,183 5.7 -13.6°
Sets 22:21:10 0° 346° (NNW) 3,106 6.8 -13.8°
